Regional Weather Roundup
Issued by NWS Sterling, VA

Home | Current Version | Previous Version | Graphics & Text | Print | Product List | Glossary On
Versions: 1 2 3 4 5 6 7 8 9 10 11 12 13 14 15 16 17 18 19 20 21 22 23 24 25 26 27 28 29 30 31 32 33 34 35 36 37 38 39 40 41 42 43 44 45 46 47 48 49 50
000
ASUS41 KLWX 191310
RWRLWX

REGIONAL WEATHER ROUNDUP
NATIONAL WEATHER SERVICE BALTIMORE MD/WASHINGTON DC
900 AM EDT SUN APR 19 2015

Note: "FAIR" indicates few or no clouds below 12,000 feet
with no significant weather and/or obstructions to visibility.
 TC=TEMPERATURE CELSIUS

 * =Non NWS site. Station does not report precipitation (e.g. rain,
    snow, etc.), thunder, or fog.

DCZ001-MDZ009-015-VAZ040>042-051-053>054-191400-
WASHINGTON METRO

CITY           SKY/WX    TMP DP  RH WIND       PRES   REMARKS
WASHINGTON NAT CLOUDY    64  37  36 E14G22    30.16R
DULLES         CLOUDY    61  32  33 E12       30.15R
ANDREWS AFB    CLOUDY    59  50  72 NE3       30.04S HAZE
FT BELVOIR     CLOUDY    62  40  45 VRB6      30.15R
QUANTICO       CLOUDY    63  39  41 E14       30.15R
LEESBURG*      CLOUDY    61  36  39 E10       30.16S
MANASSAS*      MOSUNNY   63  37  39 E9        30.14S
GAITHERSBURG*  PTSUNNY   59  30  33 E10G22    30.19S

$$

MDZ006>007-011-014-191400-
BALTIMORE METRO

CITY           SKY/WX    TMP DP  RH WIND       PRES   REMARKS
BWI AIRPORT    CLOUDY    59  34  39 E16       30.17R
MD SCIENCE CTR   N/A     60  32  34 MISG      30.19R
MARTIN STATE   CLOUDY    61  37  41 E8G17     30.20R
ANNAPOLIS      CLOUDY    59  39  47 E14G21    30.17R
FORT MEADE*    CLOUDY    59  32  36 E10       30.19S

$$

MDZ012-015-019>023-191400-
MARYLAND EASTERN SHORE

CITY           SKY/WX    TMP DP  RH WIND       PRES   REMARKS
OCEAN CITY     PTSUNNY   54  47  77 NE14G21   30.16R
SALISBURY      CLOUDY    58  47  66 NE16      30.15R
BAY BRIDGE AP*   N/A     59  36  41 E15G23    30.17S
EASTON*        SUNNY     59  45  58 E17G30    30.20

$$

MDZ017>025-191400-
SOUTHERN MARYLAND

CITY           SKY/WX    TMP DP  RH WIND       PRES   REMARKS
PATUXENT RIVER CLOUDY    59  42  53 E10       30.14S
ST INIGOES     PTSUNNY   61  41  47 NE9G22    30.13R
LEONARDTOWN*   PTSUNNY   59  34  38 E10G18    30.16S

$$

MDZ003>005-191400-
NORTH CENTRAL MARYLAND

CITY           SKY/WX    TMP DP  RH WIND       PRES   REMARKS
FREDERICK*     SUNNY     59  30  33 N8        30.20R
HAGERSTOWN APT PTSUNNY   60  26  27 E12       30.16R
WESTMINSTER*   PTSUNNY   57  21  24 E7G18     30.17S

$$

MDZ501>502-191400-
WESTERN MARYLAND

CITY           SKY/WX    TMP DP  RH WIND       PRES   REMARKS
OAKLAND*       PTSUNNY   50  32  50 E22G30    30.09F
CUMBERLAND*    PTSUNNY   59  32  36 N5        30.18S

$$

VAZ025>031-191400-
SHENANDOAH VALLEY

CITY           SKY/WX    TMP DP  RH WIND       PRES   REMARKS
WINCHESTER*    CLOUDY    59  28  31 NE5       30.15S
FRONT ROYAL*   FAIR      57  41  54 CALM      30.13R
LURAY*         FAIR      61  45  55 NE5       30.13R
NEW MARKET*    NOT AVBL
STAUNTON*      CLOUDY    57  46  65 N5        30.13R
WAYNESBORO*    NOT AVBL

$$

WVZ021-048>050-054>055-191400-
EASTERN WEST VIRGINIA PANHANDLE

CITY           SKY/WX    TMP DP  RH WIND       PRES   REMARKS
MARTINSBURG    CLOUDY    60  32  34 NE3       30.16
PETERSBURG*    NOT AVBL

$$

VAZ036>039-050-191400-
CENTRAL FOOTHILLS

CITY           SKY/WX    TMP DP  RH WIND       PRES   REMARKS
CHARLOTTESVILL PTSUNNY   61  46  57 NE16      30.11R
CULPEPER*      CLOUDY    64  43  45 E7        30.13S
ORANGE*        PTSUNNY   61  50  67 N5        30.13R
GORDONSVILLE*  CLOUDY    59  49  69 NE8       30.11R
WARRENTON*     FAIR      64  45  50 E8G17     30.12S

$$

VAZ055>057-191400-
NORTH AND CENTRAL PIEDMONT

CITY           SKY/WX    TMP DP  RH WIND       PRES   REMARKS
FREDERICKSBRG* CLOUDY    63  42  47 E9G16     30.12R
STAFFORD*      CLOUDY    61  37  40 E15       30.17R

$$

NCZ024-NYZ072-PAZ021-071-VAZ022-071-191400-
OTHER REGIONAL OBSERVATIONS

CITY           SKY/WX    TMP DP  RH WIND       PRES   REMARKS
NEW YORK CITY  SUNNY     56  27  32 E10       30.28R
PHILADELPHIA   CLOUDY    57  39  51 E13       30.23R
PITTSBURGH     PTSUNNY   57  32  38 E10       30.05F
ROANOKE        CLOUDY    63  57  81 SE3       30.05S
RICHMOND       PTSUNNY   65  56  72 E9        30.08S
RALEIGH        CLOUDY    67  64  90 E7        30.02F

$$

ANZ530>537-191400-
MARINE OBSERVATIONS

STATION/POSITION TIME  TEMP    WIND        PRES
                       AIR SEA DIR/SP/G
                 (UTC) (F)     (DEG/KT/KT) (MB)
THOMAS PT LIGHT  1300   58 56   90/ 13/ 14 1022.3R
BALT KEY BRIDGE  1200   60      70/ 14/ 17 1021.7R
COVE POINT       1218   58      90/  9/ 12 1020.9R
LEWISETTA        1200   59 62              1019.9R
SOLOMONS ISLAND  1200      56                N/A
PINEY POINT      1212           90/ 12/ 16   N/A

$$




USA.gov is the U.S. government's official web portal to all federal, state and local government web resources and services.